Middletown, OH

4:10 AM EST on February 24, 2017 (GMT -0500)
Hook Field Municipal

Weather History for KMWO - December, 2012

Change the Weather History Date:

Saturday, December 8, 2012

  Actual Average (KFFO) Record (KFFO)
Temperature  
Mean Temperature 51 °F -  
Max Temperature 55 °F 42 °F 55 °F (1999)
Min Temperature 47 °F 28 °F 7 °F (2006)
Degree Days  
Heating Degree Days 14    
Growing Degree Days 1 (Base 50)    
Moisture  
Dew Point 50 °F    
Average Humidity 98    
Maximum Humidity 100    
Minimum Humidity 92    
Precipitation  
Precipitation 0.00 in - - ()
Sea Level Pressure  
Sea Level Pressure 29.93 in    
Wind  
Wind Speed 4 mph (NW)    
Max Wind Speed 9 mph    
Max Gust Speed -    
Visibility 6 miles    
Events Rain    
Averages and records for this station are not official NWS values.
T = Trace of Precipitation, MM = Missing Value Source: NWS Daily Summary

Daily Weather History Graph

Daily Weather History Graph

Search for Another Location

Airport or City:

Trip Planner

Search our weather history database for the weather conditions in past years. The results will help you decide how hot, cold, wet, or windy it might be!

Date:

Astronomy

Dec. 08, 2012 Rise Set
Actual Time 7:45 AM EST 5:13 PM EST
Civil Twilight 7:15 AM EST 5:43 PM EST
Nautical Twilight 6:42 AM EST 6:17 PM EST
Astronomical Twilight 6:09 AM EST 6:49 PM EST
Moon 2:10 AM EST (12/8) 1:42 PM EST (12/8)
Length of Visible Light 10h 27m
Length of Day
9h 27m
Waning Crescent, 28% of the Moon is Illuminated
Dec 8
Waning Crescent
Dec 13
New
Dec 20
First Quarter
Dec 28
Full
Jan 4
Last Quarter

Hourly Weather History & Observations

Time (EST) Temp. Dew Point Humidity Pressure Visibility Wind Dir Wind Speed Gust Speed Precip Events Conditions
12:15 AM 52.7 °F 52.7 °F 100% 29.86 in 5.0 mi SW 3.5 mph - N/A   Overcast
12:35 AM 52.7 °F 52.7 °F 100% 29.86 in 7.0 mi SW 3.5 mph - N/A   Overcast
12:55 AM 52.7 °F 52.7 °F 100% 29.85 in 7.0 mi SSW 3.5 mph - N/A   Overcast
1:15 AM 52.7 °F 52.7 °F 100% 29.85 in 7.0 mi SW 4.6 mph - N/A   Mostly Cloudy
1:35 AM 52.7 °F 52.7 °F 100% 29.85 in 5.0 mi SSW 5.8 mph - N/A   Mostly Cloudy
1:55 AM 48.7 °F 48.7 °F 100% 29.85 in 4.0 mi SW 4.6 mph - N/A   Mostly Cloudy
2:15 AM 49.8 °F 49.8 °F 100% 29.85 in 4.0 mi SW 3.5 mph - N/A   Overcast
2:35 AM 50.2 °F 50.2 °F 100% 29.86 in 4.0 mi Calm Calm - N/A   Overcast
2:55 AM 49.6 °F 49.6 °F 100% 29.87 in 4.0 mi Calm Calm - N/A   Mostly Cloudy
3:15 AM 49.5 °F 49.5 °F 100% 29.87 in 3.0 mi Calm Calm - N/A   Mostly Cloudy
3:55 AM 50.2 °F 50.2 °F 100% 29.85 in 4.0 mi Calm Calm - N/A   Overcast
4:15 AM 47.8 °F 47.8 °F 100% 29.85 in 2.5 mi Calm Calm - N/A   Mostly Cloudy
4:35 AM 47.7 °F 47.7 °F 100% 29.85 in 1.8 mi Calm Calm - N/A   Overcast
4:55 AM 47.7 °F 47.7 °F 100% 29.85 in 2.0 mi Calm Calm - N/A   Overcast
5:15 AM 47.7 °F 47.7 °F 100% 29.85 in 2.5 mi Calm Calm - N/A   Overcast
5:35 AM 49.6 °F 49.6 °F 100% 29.85 in 2.0 mi Calm Calm - N/A   Overcast
6:15 AM 49.1 °F 49.1 °F 100% 29.85 in 2.0 mi Calm Calm - N/A Rain Light Rain
6:35 AM 49.1 °F 49.1 °F 100% 29.87 in 2.0 mi Calm Calm - N/A Rain Light Rain
6:55 AM 50.2 °F 50.2 °F 100% 29.87 in 2.5 mi Calm Calm - N/A   Overcast
7:15 AM 52.7 °F 52.7 °F 100% 29.86 in 3.0 mi South 6.9 mph - N/A Rain Light Rain
7:35 AM 52.7 °F 52.7 °F 100% 29.87 in 2.5 mi WSW 3.5 mph - N/A Rain Rain
7:55 AM 52.7 °F 52.7 °F 100% 29.87 in 2.5 mi Calm Calm - N/A   Overcast
8:15 AM 52.7 °F 52.7 °F 100% 29.88 in 2.5 mi SW 4.6 mph - N/A Rain Light Rain
8:35 AM 52.7 °F 52.7 °F 100% 29.89 in 1.5 mi Calm Calm - N/A Rain Rain
8:55 AM 52.7 °F 52.7 °F 100% 29.89 in 2.0 mi WSW 4.6 mph - N/A   Overcast
9:15 AM 52.7 °F 52.7 °F 100% 29.89 in 2.0 mi SW 4.6 mph - N/A Rain Light Rain
9:35 AM 52.7 °F 52.7 °F 100% 29.90 in 1.8 mi West 4.6 mph - N/A   Drizzle
9:55 AM 52.7 °F 52.7 °F 100% 29.90 in 2.5 mi West 3.5 mph - N/A Rain Light Rain
10:15 AM 52.7 °F 52.7 °F 100% 29.91 in 3.0 mi WSW 3.5 mph - N/A   Light Drizzle
10:35 AM 52.7 °F 52.7 °F 100% 29.91 in 4.0 mi West 5.8 mph - N/A   Overcast
10:55 AM 52.7 °F 52.7 °F 100% 29.90 in 4.0 mi Calm Calm - N/A   Light Drizzle
11:15 AM 52.7 °F 52.7 °F 100% 29.90 in 4.0 mi SW 3.5 mph - N/A   Overcast
11:35 AM 52.7 °F 52.7 °F 100% 29.90 in 3.0 mi SW 4.6 mph - N/A   Overcast
11:55 AM 52.7 °F 52.7 °F 100% 29.90 in 3.0 mi WSW 3.5 mph - N/A   Overcast
12:15 PM 52.7 °F 52.7 °F 100% 29.90 in 4.0 mi WSW 5.8 mph - N/A   Overcast
12:35 PM 52.7 °F 52.7 °F 100% 29.91 in 5.0 mi West 6.9 mph - N/A   Light Drizzle
12:55 PM 52.7 °F 52.7 °F 100% 29.91 in 5.0 mi West 8.1 mph - N/A   Overcast
1:15 PM 52.9 °F 52.5 °F 99% 29.91 in 5.0 mi West 4.6 mph - N/A   Overcast
1:35 PM 53.6 °F 52.9 °F 97% 29.91 in 7.0 mi West 4.6 mph - N/A   Overcast
1:55 PM 55.0 °F 53.6 °F 95% 29.91 in 7.0 mi WNW 5.8 mph - N/A   Overcast
2:15 PM 55.4 °F 53.1 °F 92% 29.92 in 10.0 mi West 5.8 mph - N/A   Overcast
2:35 PM 54.7 °F 52.3 °F 92% 29.92 in 10.0 mi NW 9.2 mph - N/A   Overcast
2:55 PM 52.7 °F 51.1 °F 94% 29.94 in 10.0 mi NW 9.2 mph - N/A   Overcast
3:15 PM 52.7 °F 51.3 °F 95% 29.95 in 10.0 mi NNW 9.2 mph - N/A   Overcast
3:35 PM 52.7 °F 51.6 °F 96% 29.95 in 10.0 mi NNW 6.9 mph - N/A   Overcast
3:55 PM 52.7 °F 51.8 °F 97% 29.96 in 10.0 mi NNW 5.8 mph - N/A   Overcast
4:15 PM 52.7 °F 51.8 °F 97% 29.96 in 10.0 mi NNW 8.1 mph - N/A   Overcast
4:35 PM 52.7 °F 51.8 °F 97% 29.98 in 10.0 mi NNW 3.5 mph - N/A   Overcast
4:55 PM 50.2 °F 49.3 °F 97% 29.98 in 10.0 mi North 9.2 mph - N/A   Overcast
5:15 PM 50.2 °F 49.1 °F 96% 29.98 in 10.0 mi NNW 6.9 mph - N/A   Overcast
5:35 PM 50.2 °F 49.1 °F 96% 29.99 in 10.0 mi North 8.1 mph - N/A   Overcast
5:55 PM 49.1 °F 47.8 °F 95% 30.00 in 10.0 mi North 6.9 mph - N/A   Overcast
6:15 PM 48.9 °F 47.7 °F 95% 30.01 in 10.0 mi North 8.1 mph - N/A   Overcast
6:35 PM 47.7 °F 46.8 °F 97% 30.01 in 10.0 mi North 5.8 mph - N/A   Overcast
6:55 PM 47.7 °F 46.8 °F 97% 30.02 in 10.0 mi North 6.9 mph - N/A   Overcast
7:15 PM 47.7 °F 46.9 °F 97% 30.03 in 10.0 mi North 5.8 mph - N/A   Overcast
7:35 PM 47.7 °F 46.4 °F 95% 30.04 in 10.0 mi North 4.6 mph - N/A   Overcast
7:55 PM 47.7 °F 46.4 °F 95% 30.04 in 10.0 mi North 5.8 mph - N/A   Overcast
8:15 PM 47.7 °F 46.0 °F 94% 30.04 in 10.0 mi North 5.8 mph - N/A   Overcast
8:35 PM 47.7 °F 46.0 °F 94% 30.05 in 10.0 mi NNE 5.8 mph - N/A   Overcast
9:15 PM 47.7 °F 46.4 °F 95% 30.03 in 10.0 mi NNE 4.6 mph - N/A   Overcast
9:35 PM 47.7 °F 46.4 °F 95% 30.03 in 10.0 mi NE 6.9 mph - N/A   Overcast
9:55 PM 47.7 °F 46.9 °F 97% 30.04 in 7.0 mi ENE 4.6 mph - N/A   Overcast
10:15 PM 47.7 °F 47.3 °F 99% 30.04 in 7.0 mi NE 4.6 mph - N/A   Mostly Cloudy
10:35 PM 47.7 °F 47.7 °F 100% 30.05 in 7.0 mi NNE 4.6 mph - N/A   Overcast
10:55 PM 47.7 °F 47.5 °F 99% 30.05 in 7.0 mi NNE 5.8 mph - N/A   Overcast
11:15 PM 47.7 °F 47.5 °F 99% 30.05 in 7.0 mi NNE 5.8 mph - N/A   Overcast
11:35 PM 47.7 °F 47.3 °F 99% 30.05 in 7.0 mi ENE 5.8 mph - N/A   Overcast
11:55 PM 47.7 °F 47.5 °F 99% 30.05 in 7.0 mi ENE 8.1 mph - N/A   Overcast